Location: Sungai Bunut
(2.6333°N, 113.7333°E)
Time: 08:24:39
(UTC+00:00)

Tiangong - Visible Passes

Search period start: 23 September 2023 00:00
Search period end: 03 October 2023 00:00
Orbit: 374 x 385 km, 41.5° (Epoch: 22 September)

Date Brightness Start Highest point End Pass type
(mag) Time Alt. Az. Time Alt. Az. Time Alt. Az.
23 Sep -2.3 10:54:48 10° SW 10:57:55 82° SE 11:01:00 10° NE visible
24 Sep 0.8 11:31:43 10° WNW 11:33:17 13° NW 11:34:51 10° NNW visible
24 Sep -0.4 21:22:12 10° NNW 21:24:58 30° NE 21:27:47 10° ESE visible
25 Sep 1.2 20:24:12 11° NE 20:24:12 11° NE 20:24:49 10° ENE visible
26 Sep -2.3 20:58:53 86° ENE 20:58:53 86° ENE 21:01:58 10° SE visible
27 Sep 0.0 21:33:26 12° SW 21:34:01 12° SW 21:35:23 10° SSW visible
